Date String (YYYY-MM-DD hh:mm:ss) UTC,Instrument flags,absolute air pressure of the measurement (hPa),sample flow rate (lpm),inlet stack bypass flow (lpm),air temperature of the measurement (°C),ambient temperature measured by the external sensor (°C),aerosol sample conditioner tube jacket temperature (°C),OPC LED temperature (°C),internal box temperature (°C),relative humidity of the measurement (%),span deviation,mass concentration of particles derived from Lorenz-Mie calculation of OPC scattering (μg/m³),mass concentration of particles derived from Lorenz-Mie calculation of OPC scattering (μg/m³),mass concentration of particles derived from Lorenz-Mie calculation of OPC scattering (μg/m³)
DateTimeUTC,F1_M11,P_M11,Q1_M11,Q2_M11,T1_M11,T2_M11,T3_M11,T4_M11,T5_M11,U1_M11,ZSPAN_M11,X2_M11,X0_M11,X1_M11
2023-07-11 20:00:00,SystemResetWarning,0830.3,5.00,000.00,028.6,026.7,000.0,036.9,030.2,15.1,0000.0,0004.55,0010.39,0003.70
2023-07-11 20:01:00,SystemResetWarning,0830.3,4.99,000.00,028.6,027.0,000.0,036.9,030.3,14.1,0000.0,0004.56,0010.46,0003.70
2023-07-11 20:02:00,SystemResetWarning,0830.3,5.00,000.00,028.7,027.3,000.0,036.9,030.4,13.9,0000.0,0004.58,0010.23,0003.69
2023-07-11 20:03:00,SystemResetWarning,0830.3,4.99,000.00,028.7,026.6,000.0,036.9,030.4,13.9,0000.0,0004.55,0009.30,0003.67
2023-07-11 20:04:00,SystemResetWarning,0830.3,5.00,000.00,028.7,025.1,000.0,036.8,030.1,13.2,0000.0,0004.48,0009.11,0003.65
2023-07-11 20:05:00,SystemResetWarning,0830.2,5.01,000.00,028.6,025.0,000.0,036.7,030.0,13.0,0000.0,0004.41,0009.12,0003.63
2023-07-11 20:06:00,SystemResetWarning,0830.2,5.00,000.00,028.5,025.4,000.0,036.8,030.0,13.0,0000.0,0004.43,0009.25,0003.62
2023-07-11 20:07:00,SystemResetWarning,0830.2,4.99,000.00,028.5,025.8,000.0,036.8,030.0,13.4,0000.0,0004.44,0009.90,0003.61
2023-07-11 20:08:00,SystemResetWarning,0830.3,4.99,000.00,028.5,026.2,000.0,036.8,030.1,14.6,0000.0,0004.45,0010.54,0003.61
2023-07-11 20:09:00,SystemResetWarning,0830.3,5.00,000.00,028.6,026.7,000.0,036.9,030.2,15.3,0000.0,0004.44,0010.57,0003.59
2023-07-11 20:10:00,SystemResetWarning,0830.2,5.01,000.00,028.6,027.0,000.0,036.9,030.3,15.3,0000.0,0004.40,0010.73,0003.56
2023-07-11 20:11:00,SystemResetWarning,0830.3,5.01,000.00,028.7,027.3,000.0,036.9,030.4,16.7,0000.0,0004.35,0010.80,0003.52
2023-07-11 20:12:00,SystemResetWarning,0830.2,4.98,000.00,028.7,026.7,000.0,036.9,030.4,17.1,0000.0,0004.26,0010.51,0003.49
2023-07-11 20:13:00,SystemResetWarning,0830.2,5.00,000.00,028.7,025.2,000.0,036.8,030.1,14.7,0000.0,0004.25,0011.06,0003.48
2023-07-11 20:14:00,SystemResetWarning,0830.1,5.02,000.00,028.6,025.0,000.0,036.7,030.1,14.5,0000.0,0004.25,0011.28,0003.47
2023-07-11 20:15:00,SystemResetWarning,0830.2,4.99,000.00,028.6,025.4,000.0,036.8,030.0,15.8,0000.0,0004.26,0011.52,0003.45
2023-07-11 20:16:00,SystemResetWarning,0830.2,5.00,000.00,028.5,025.8,000.0,036.8,030.0,16.1,0000.0,0004.28,0011.32,0003.44
2023-07-11 20:17:00,SystemResetWarning,0830.1,5.00,000.00,028.6,026.3,000.0,036.9,030.1,16.5,0000.0,0004.25,0011.95,0003.43
2023-07-11 20:18:00,SystemResetWarning,0830.2,5.00,000.00,028.6,026.7,000.0,036.9,030.2,16.8,0000.0,0004.27,0012.29,0003.42
2023-07-11 20:19:00,SystemResetWarning,0830.2,4.99,000.00,028.6,027.1,000.0,036.9,030.3,17.0,0000.0,0004.34,0011.84,0003.43
2023-07-11 20:20:00,SystemResetWarning,0830.2,5.00,000.00,028.7,027.4,000.0,036.9,030.4,14.4,0000.0,0004.34,0011.92,0003.45
2023-07-11 20:21:00,SystemResetWarning,0830.2,4.99,000.00,028.7,027.0,000.0,036.9,030.4,17.4,0000.0,0004.33,0011.89,0003.45
2023-07-11 20:22:00,SystemResetWarning,0830.2,5.00,000.00,028.7,025.4,000.0,036.8,030.2,16.1,0000.0,0004.35,0011.87,0003.45
2023-07-11 20:23:00,SystemResetWarning,0830.2,5.01,000.00,028.6,025.2,000.0,036.8,030.1,16.1,0000.0,0004.39,0011.92,0003.45
2023-07-11 20:24:00,SystemResetWarning,0830.2,5.01,000.00,028.6,025.5,000.0,036.8,030.1,16.1,0000.0,0004.37,0011.62,0003.44
2023-07-11 20:25:00,SystemResetWarning,0830.2,5.00,000.00,028.6,025.9,000.0,036.8,030.1,16.2,0000.0,0004.42,0012.63,0003.44
2023-07-11 20:26:00,SystemResetWarning,0830.2,5.00,000.00,028.6,026.4,000.0,036.9,030.2,17.1,0000.0,0004.47,0013.72,0003.45
2023-07-11 20:27:00,SystemResetWarning,0830.2,5.00,000.00,028.6,026.8,000.0,036.9,030.3,17.9,0000.0,0004.48,0013.71,0003.45
2023-07-11 20:28:00,SystemResetWarning,0830.3,5.00,000.00,028.7,027.1,000.0,036.9,030.4,17.9,0000.0,0004.47,0013.07,0003.45
2023-07-11 20:29:00,SystemResetWarning,0830.1,5.00,000.00,028.7,027.5,000.0,037.0,030.5,17.6,0000.0,0004.45,0012.88,0003.48
2023-07-11 20:30:00,SystemResetWarning,0830.1,4.99,000.00,028.8,027.0,000.0,036.9,030.5,16.4,0000.0,0004.41,0012.87,0003.46
2023-07-11 20:31:00,SystemResetWarning,0830.2,5.00,000.00,028.7,025.4,000.0,036.9,030.3,16.5,0000.0,0004.48,0013.26,0003.46
2023-07-11 20:32:00,SystemResetWarning,0830.1,5.02,000.00,028.7,025.1,000.0,036.8,030.1,14.8,0000.0,0004.48,0013.09,0003.47
2023-07-11 20:33:00,SystemResetWarning,0830.1,4.99,000.00,028.6,025.4,000.0,036.8,030.1,17.5,0000.0,0004.49,0013.44,0003.49
2023-07-11 20:34:00,SystemResetWarning,0830.1,5.00,000.00,028.6,025.8,000.0,036.8,030.1,18.5,0000.0,0004.52,0014.18,0003.50
2023-07-11 20:35:00,SystemResetWarning,0830.1,4.99,000.00,028.6,026.3,000.0,036.9,030.2,16.8,0000.0,0004.55,0014.31,0003.53
2023-07-11 20:36:00,SystemResetWarning,0830.1,5.00,000.00,028.6,026.7,000.0,036.9,030.3,17.6,0000.0,0004.56,0013.85,0003.54
2023-07-11 20:37:00,SystemResetWarning,0830.0,5.01,000.00,028.7,027.1,000.0,037.0,030.4,17.8,0000.0,0004.49,0011.84,0003.55
2023-07-11 20:38:00,SystemResetWarning,0830.1,5.01,000.00,028.7,027.4,000.0,037.0,030.5,19.2,0000.0,0004.45,0011.78,0003.55
2023-07-11 20:39:00,SystemResetWarning,0830.1,4.98,000.00,028.8,027.1,000.0,037.0,030.5,18.2,0000.0,0004.47,0011.83,0003.56
2023-07-11 20:40:00,SystemResetWarning,0830.0,5.00,000.00,028.7,025.5,000.0,036.9,030.3,17.2,0000.0,0004.48,0011.59,0003.54
2023-07-11 20:41:00,SystemResetWarning,0830.0,5.02,000.00,028.7,025.0,000.0,036.8,030.2,15.6,0000.0,0004.51,0012.25,0003.56
2023-07-11 20:42:00,SystemResetWarning,0830.0,5.00,000.00,028.6,025.4,000.0,036.8,030.1,16.1,0000.0,0004.47,0012.53,0003.58
2023-07-11 20:43:00,SystemResetWarning,0830.0,4.99,000.00,028.6,025.8,000.0,036.9,030.1,15.9,0000.0,0004.48,0012.43,0003.60
2023-07-11 20:44:00,SystemResetWarning,0830.0,5.00,000.00,028.6,026.2,000.0,036.9,030.2,16.8,0000.0,0004.51,0012.18,0003.61
2023-07-11 20:45:00,SystemResetWarning,0830.0,5.01,000.00,028.7,026.7,000.0,036.9,030.3,15.9,0000.0,0004.52,0012.34,0003.63
2023-07-11 20:46:00,SystemResetWarning,0830.0,4.99,000.00,028.7,027.1,000.0,037.0,030.4,15.6,0000.0,0004.53,0012.34,0003.63
2023-07-11 20:47:00,SystemResetWarning,0830.0,4.99,000.00,028.8,027.3,000.0,037.0,030.5,16.1,0000.0,0004.54,0011.90,0003.63
2023-07-11 20:48:00,SystemResetWarning,0830.0,5.00,000.00,028.8,026.3,000.0,036.9,030.4,15.3,0000.0,0004.53,0011.73,0003.63
2023-07-11 20:49:00,SystemResetWarning,0830.0,5.01,000.00,028.7,025.0,000.0,036.8,030.1,13.8,0000.0,0004.51,0011.65,0003.62
2023-07-11 20:50:00,SystemResetWarning,0830.0,5.02,000.00,028.6,025.1,000.0,036.8,030.1,13.8,0000.0,0004.49,0011.64,0003.61
2023-07-11 20:51:00,SystemResetWarning,0830.0,4.99,000.00,028.6,025.5,000.0,036.8,030.0,14.1,0000.0,0004.42,0011.09,0003.60
2023-07-11 20:52:00,SystemResetWarning,0830.0,5.00,000.00,028.6,025.9,000.0,036.9,030.1,13.3,0000.0,0004.36,0010.17,0003.57
2023-07-11 20:53:00,SystemResetWarning,0830.0,5.00,000.00,028.6,026.4,000.0,036.9,030.2,13.6,0000.0,0004.37,0009.62,0003.55
2023-07-11 20:54:00,SystemResetWarning,0829.9,5.00,000.00,028.7,026.8,000.0,036.9,030.3,13.9,0000.0,0004.34,0009.47,0003.53
2023-07-11 20:55:00,SystemResetWarning,0829.9,4.98,000.00,028.7,027.2,000.0,037.0,030.4,15.3,0000.0,0004.34,0009.62,0003.51
2023-07-11 20:56:00,SystemResetWarning,0829.9,5.00,000.00,028.8,027.5,000.0,037.0,030.5,15.1,0000.0,0004.36,0008.87,0003.49
2023-07-11 20:57:00,SystemResetWarning,0829.9,5.00,000.00,028.8,026.5,000.0,036.9,030.4,15.9,0000.0,0004.32,0008.37,0003.48
2023-07-11 20:58:00,SystemResetWarning,0829.8,5.01,000.00,028.7,025.1,000.0,036.9,030.2,15.7,0000.0,0004.27,0008.48,0003.47
2023-07-11 20:59:00,SystemResetWarning,0829.7,5.01,000.00,028.7,025.3,000.0,036.8,030.1,15.3,0000.0,0004.26,0008.92,0003.48
